Year,Month,Day,Hour,Minute,Value (Times are PST for temperature in C)
2009,04,14,00,00,4.50
2009,04,14,00,01,4.50
2009,04,14,00,02,4.50
2009,04,14,00,03,4.50
2009,04,14,00,04,4.50
2009,04,14,00,05,4.50
2009,04,14,00,06,4.50
2009,04,14,00,07,4.50
2009,04,14,00,08,4.50
2009,04,14,00,09,4.50
2009,04,14,00,10,4.50
2009,04,14,00,11,4.50
2009,04,14,00,12,4.50
2009,04,14,00,13,4.50
2009,04,14,00,14,4.50
2009,04,14,00,15,4.50
2009,04,14,00,16,4.40
2009,04,14,00,17,4.40
2009,04,14,00,18,4.40
2009,04,14,00,19,4.40
2009,04,14,00,20,4.40
2009,04,14,00,21,4.40
2009,04,14,00,22,4.40
2009,04,14,00,23,4.40
2009,04,14,00,24,4.40
2009,04,14,00,25,4.40
2009,04,14,00,26,4.50
2009,04,14,00,27,4.40
2009,04,14,00,28,4.40
2009,04,14,00,29,4.40
2009,04,14,00,30,4.40
2009,04,14,00,31,4.40
2009,04,14,00,32,4.40
2009,04,14,00,33,4.40
2009,04,14,00,34,4.40
2009,04,14,00,35,4.40
2009,04,14,00,36,4.40
2009,04,14,00,37,4.40
2009,04,14,00,38,4.40
2009,04,14,00,39,4.40
2009,04,14,00,40,4.30
2009,04,14,00,41,4.30
2009,04,14,00,42,4.30
2009,04,14,00,43,4.30
2009,04,14,00,44,4.30
2009,04,14,00,45,4.20
2009,04,14,00,46,4.20
2009,04,14,00,47,4.20
2009,04,14,00,48,4.20
2009,04,14,00,49,4.20
2009,04,14,00,50,4.20
2009,04,14,00,51,4.20
2009,04,14,00,52,4.20
2009,04,14,00,53,4.20
2009,04,14,00,54,4.20
2009,04,14,00,55,4.20
2009,04,14,00,56,4.20
2009,04,14,00,57,4.20
2009,04,14,00,58,4.20
2009,04,14,00,59,4.20
2009,04,14,01,00,4.10
2009,04,14,01,01,4.10
2009,04,14,01,02,4.10
2009,04,14,01,03,4.10
2009,04,14,01,04,4.10
2009,04,14,01,05,4.10
2009,04,14,01,06,4.10
2009,04,14,01,07,4.00
2009,04,14,01,08,4.00
2009,04,14,01,09,4.00
2009,04,14,01,10,4.00
2009,04,14,01,11,4.00
2009,04,14,01,12,4.00
2009,04,14,01,13,4.00
2009,04,14,01,14,4.00
2009,04,14,01,15,3.90
2009,04,14,01,16,3.90
2009,04,14,01,17,3.90
2009,04,14,01,18,3.90
2009,04,14,01,19,3.90
2009,04,14,01,20,3.90
2009,04,14,01,21,3.90
2009,04,14,01,22,3.90
2009,04,14,01,23,3.90
2009,04,14,01,24,3.90
2009,04,14,01,25,3.80
2009,04,14,01,26,3.80
2009,04,14,01,27,3.80
2009,04,14,01,28,3.80
2009,04,14,01,29,3.80
2009,04,14,01,30,3.80
2009,04,14,01,31,3.80
2009,04,14,01,32,3.80
2009,04,14,01,33,3.80
2009,04,14,01,34,3.80
2009,04,14,01,35,3.70
2009,04,14,01,36,3.70
2009,04,14,01,37,3.70
2009,04,14,01,38,3.70
2009,04,14,01,39,3.60
2009,04,14,01,40,3.60
2009,04,14,01,41,3.60
2009,04,14,01,42,3.60
2009,04,14,01,43,3.60
2009,04,14,01,44,3.60
2009,04,14,01,45,3.60
2009,04,14,01,46,3.50
2009,04,14,01,47,3.50
2009,04,14,01,48,3.50
2009,04,14,01,49,3.50
2009,04,14,01,50,3.50
2009,04,14,01,51,3.40
2009,04,14,01,52,3.40
2009,04,14,01,53,3.40
2009,04,14,01,54,3.40
2009,04,14,01,55,3.40
2009,04,14,01,56,3.40
2009,04,14,01,57,3.40
2009,04,14,01,58,3.30
2009,04,14,01,59,3.30
2009,04,14,02,00,3.30
2009,04,14,02,01,3.30
2009,04,14,02,02,3.30
2009,04,14,02,03,3.30
2009,04,14,02,04,3.30
2009,04,14,02,05,3.30
2009,04,14,02,06,3.30
2009,04,14,02,07,3.30
2009,04,14,02,08,3.30
2009,04,14,02,09,3.30
2009,04,14,02,10,3.30
2009,04,14,02,11,3.30
2009,04,14,02,12,3.30
2009,04,14,02,13,3.30
2009,04,14,02,14,3.30
2009,04,14,02,15,3.30
2009,04,14,02,16,3.30
2009,04,14,02,17,3.30
2009,04,14,02,18,3.30
2009,04,14,02,19,3.30
2009,04,14,02,20,3.30
2009,04,14,02,21,3.20
2009,04,14,02,22,3.20
2009,04,14,02,23,3.20
2009,04,14,02,24,3.20
2009,04,14,02,25,3.20
2009,04,14,02,26,3.20
2009,04,14,02,27,3.20
2009,04,14,02,28,3.20
2009,04,14,02,29,3.20
2009,04,14,02,30,3.20
2009,04,14,02,31,3.20
2009,04,14,02,32,3.20
2009,04,14,02,33,3.20
2009,04,14,02,34,3.20
2009,04,14,02,35,3.20
2009,04,14,02,36,3.20
2009,04,14,02,37,3.20
2009,04,14,02,38,3.20
2009,04,14,02,39,3.10
2009,04,14,02,40,3.10
2009,04,14,02,41,3.10
2009,04,14,02,42,3.10
2009,04,14,02,43,3.10
2009,04,14,02,44,3.10
2009,04,14,02,45,3.10
2009,04,14,02,46,3.10
2009,04,14,02,47,3.10
2009,04,14,02,48,3.10
2009,04,14,02,49,3.10
2009,04,14,02,50,3.10
2009,04,14,02,51,3.10
2009,04,14,02,52,3.00
2009,04,14,02,53,2.90
2009,04,14,02,54,2.90
2009,04,14,02,55,2.90
2009,04,14,02,56,2.90
2009,04,14,02,57,2.90
2009,04,14,02,58,2.90
2009,04,14,02,59,2.90
2009,04,14,03,00,2.90
2009,04,14,03,01,2.90
2009,04,14,03,02,2.90
2009,04,14,03,03,2.90
2009,04,14,03,04,2.90
2009,04,14,03,05,2.90
2009,04,14,03,06,2.80
2009,04,14,03,07,2.80
2009,04,14,03,08,2.80
2009,04,14,03,09,2.80
2009,04,14,03,10,2.80
2009,04,14,03,11,2.80
2009,04,14,03,12,2.80
2009,04,14,03,13,2.80
2009,04,14,03,14,2.80
2009,04,14,03,15,2.90
2009,04,14,03,16,2.90
2009,04,14,03,17,2.90
2009,04,14,03,18,2.90
2009,04,14,03,19,2.80
2009,04,14,03,20,2.80
2009,04,14,03,21,2.80
2009,04,14,03,22,2.80
2009,04,14,03,23,2.80
2009,04,14,03,24,2.80
2009,04,14,03,25,2.80
2009,04,14,03,26,2.70
2009,04,14,03,27,2.70
2009,04,14,03,28,2.70
2009,04,14,03,29,2.70
2009,04,14,03,30,2.70
2009,04,14,03,31,2.70
2009,04,14,03,32,2.70
2009,04,14,03,33,2.70
2009,04,14,03,34,2.70
2009,04,14,03,35,2.70
2009,04,14,03,36,2.70
2009,04,14,03,37,2.60
2009,04,14,03,38,2.60
2009,04,14,03,39,2.60
2009,04,14,03,40,2.60
2009,04,14,03,41,2.50
2009,04,14,03,42,2.50
2009,04,14,03,43,2.50
2009,04,14,03,44,2.50
2009,04,14,03,45,2.40
2009,04,14,03,46,2.40
2009,04,14,03,47,2.40
2009,04,14,03,48,2.40
2009,04,14,03,49,2.30
2009,04,14,03,50,2.30
2009,04,14,03,51,2.20
2009,04,14,03,52,2.20
2009,04,14,03,53,2.20
2009,04,14,03,54,2.20
2009,04,14,03,55,2.10
2009,04,14,03,56,2.10
2009,04,14,03,57,2.10
2009,04,14,03,58,2.10
2009,04,14,03,59,2.10
2009,04,14,04,00,2.10
2009,04,14,04,01,2.00
2009,04,14,04,02,2.00
2009,04,14,04,03,2.00
2009,04,14,04,04,2.00
2009,04,14,04,05,2.00
2009,04,14,04,06,2.00
2009,04,14,04,07,2.00
2009,04,14,04,08,1.90
2009,04,14,04,09,1.90
2009,04,14,04,10,1.90
2009,04,14,04,11,1.90
2009,04,14,04,12,2.00
2009,04,14,04,13,2.00
2009,04,14,04,14,2.10
2009,04,14,04,15,2.20
2009,04,14,04,16,2.20
2009,04,14,04,17,2.20
2009,04,14,04,18,2.20
2009,04,14,04,19,2.20
2009,04,14,04,20,2.20
2009,04,14,04,21,2.20
2009,04,14,04,22,2.20
2009,04,14,04,23,2.20
2009,04,14,04,24,2.20
2009,04,14,04,25,2.20
2009,04,14,04,26,2.20
2009,04,14,04,27,2.20
2009,04,14,04,28,2.20
2009,04,14,04,29,2.20
2009,04,14,04,30,2.20
2009,04,14,04,31,2.20
2009,04,14,04,32,2.20
2009,04,14,04,33,2.20
2009,04,14,04,34,2.20
2009,04,14,04,35,2.20
2009,04,14,04,36,2.20
2009,04,14,04,37,2.20
2009,04,14,04,38,2.20
2009,04,14,04,39,2.20
2009,04,14,04,40,2.20
2009,04,14,04,41,2.20
2009,04,14,04,42,2.20
2009,04,14,04,43,2.20
2009,04,14,04,44,2.20
2009,04,14,04,45,2.20
2009,04,14,04,46,2.10
2009,04,14,04,47,2.10
2009,04,14,04,48,2.10
2009,04,14,04,49,2.10
2009,04,14,04,50,2.10
2009,04,14,04,51,2.00
2009,04,14,04,52,2.00
2009,04,14,04,53,1.90
2009,04,14,04,54,1.80
2009,04,14,04,55,1.80
2009,04,14,04,56,1.80
2009,04,14,04,57,1.70
2009,04,14,04,58,1.60
2009,04,14,04,59,1.60
2009,04,14,05,00,1.50
2009,04,14,05,01,1.50
2009,04,14,05,02,1.50
2009,04,14,05,03,1.50
2009,04,14,05,04,1.50
2009,04,14,05,05,1.50
2009,04,14,05,06,1.50
2009,04,14,05,07,1.50
2009,04,14,05,08,1.50
2009,04,14,05,09,1.50
2009,04,14,05,10,1.50
2009,04,14,05,11,1.50
2009,04,14,05,12,1.50
2009,04,14,05,13,1.40
2009,04,14,05,14,1.40
2009,04,14,05,15,1.30
2009,04,14,05,16,1.30
2009,04,14,05,17,1.30
2009,04,14,05,18,1.30
2009,04,14,05,19,1.20
2009,04,14,05,20,1.20
2009,04,14,05,21,1.20
2009,04,14,05,22,1.20
2009,04,14,05,23,1.20
2009,04,14,05,24,1.20
2009,04,14,05,25,1.20
2009,04,14,05,26,1.20
2009,04,14,05,27,1.20
2009,04,14,05,28,1.20
2009,04,14,05,29,1.20
2009,04,14,05,30,1.20
2009,04,14,05,31,1.20
2009,04,14,05,32,1.20
2009,04,14,05,33,1.20
2009,04,14,05,34,1.20
2009,04,14,05,35,1.20
2009,04,14,05,36,1.20
2009,04,14,05,37,1.20
2009,04,14,05,38,1.20
2009,04,14,05,39,1.30
2009,04,14,05,40,1.30
2009,04,14,05,41,1.20
2009,04,14,05,42,1.20
2009,04,14,05,43,1.20
2009,04,14,05,44,1.20
2009,04,14,05,45,1.30
2009,04,14,05,46,1.30
2009,04,14,05,47,1.30
2009,04,14,05,48,1.30
2009,04,14,05,49,1.30
2009,04,14,05,50,1.30
2009,04,14,05,51,1.30
2009,04,14,05,52,1.30
2009,04,14,05,53,1.30
2009,04,14,05,54,1.20
2009,04,14,05,55,1.20
2009,04,14,05,56,1.20
2009,04,14,05,57,1.20
2009,04,14,05,58,1.10
2009,04,14,05,59,1.00
2009,04,14,06,00,1.00
2009,04,14,06,01,0.90
2009,04,14,06,02,0.90
2009,04,14,06,03,0.80
2009,04,14,06,04,0.80
2009,04,14,06,05,0.80
2009,04,14,06,06,0.70
2009,04,14,06,07,0.70
2009,04,14,06,08,0.60
2009,04,14,06,09,0.60
2009,04,14,06,10,0.50
2009,04,14,06,11,0.50
2009,04,14,06,12,0.40
2009,04,14,06,13,0.40
2009,04,14,06,14,0.40
2009,04,14,06,15,0.40
2009,04,14,06,16,0.40
2009,04,14,06,17,0.40
2009,04,14,06,18,0.30
2009,04,14,06,19,0.30
2009,04,14,06,20,0.30
2009,04,14,06,21,0.30
2009,04,14,06,22,0.30
2009,04,14,06,23,0.30
2009,04,14,06,24,0.30
2009,04,14,06,25,0.30
2009,04,14,06,26,0.30
2009,04,14,06,27,0.30
2009,04,14,06,28,0.30
2009,04,14,06,29,0.30
2009,04,14,06,30,0.30
2009,04,14,06,31,0.30
2009,04,14,06,32,0.30
2009,04,14,06,33,0.30
2009,04,14,06,34,0.30
2009,04,14,06,35,0.30
2009,04,14,06,36,0.30
2009,04,14,06,37,0.30
2009,04,14,06,38,0.30
2009,04,14,06,39,0.30
2009,04,14,06,40,0.30
2009,04,14,06,41,0.30
2009,04,14,06,42,0.30
2009,04,14,06,43,0.30
2009,04,14,06,44,0.30
2009,04,14,06,45,0.40
2009,04,14,06,46,0.40
2009,04,14,06,47,0.40
2009,04,14,06,48,0.40
2009,04,14,06,49,0.40
2009,04,14,06,50,0.40
2009,04,14,06,51,0.40
2009,04,14,06,52,0.50
2009,04,14,06,53,0.50
2009,04,14,06,54,0.50
2009,04,14,06,55,0.50
2009,04,14,06,56,0.60
2009,04,14,06,57,0.60
2009,04,14,06,58,0.60
2009,04,14,06,59,0.70
2009,04,14,07,00,0.80
2009,04,14,07,01,0.80
2009,04,14,07,02,0.80
2009,04,14,07,03,0.90
2009,04,14,07,04,0.90
2009,04,14,07,05,1.00
2009,04,14,07,06,1.00
2009,04,14,07,07,1.10
2009,04,14,07,08,1.10
2009,04,14,07,09,1.10
2009,04,14,07,10,1.20
2009,04,14,07,11,1.20
2009,04,14,07,12,1.20
2009,04,14,07,13,1.20
2009,04,14,07,14,1.30
2009,04,14,07,15,1.30
2009,04,14,07,16,1.30
2009,04,14,07,17,1.30
2009,04,14,07,18,1.30
2009,04,14,07,19,1.30
2009,04,14,07,20,1.30
2009,04,14,07,21,1.30
2009,04,14,07,22,1.30
2009,04,14,07,23,1.40
2009,04,14,07,24,1.50
2009,04,14,07,25,1.60
2009,04,14,07,26,1.60
2009,04,14,07,27,1.70
2009,04,14,07,28,1.80
2009,04,14,07,29,1.80
2009,04,14,07,30,1.90
2009,04,14,07,31,2.10
2009,04,14,07,32,2.20
2009,04,14,07,33,2.20
2009,04,14,07,34,2.30
2009,04,14,07,35,2.40
2009,04,14,07,36,2.50
2009,04,14,07,37,2.60
2009,04,14,07,38,2.70
2009,04,14,07,39,2.70
2009,04,14,07,40,2.70
2009,04,14,07,41,2.80
2009,04,14,07,42,2.80
2009,04,14,07,43,2.90
2009,04,14,07,44,2.90
2009,04,14,07,45,2.90
2009,04,14,07,46,2.90
2009,04,14,07,47,3.00
2009,04,14,07,48,3.10
2009,04,14,07,49,3.20
2009,04,14,07,50,3.30
2009,04,14,07,51,3.40
2009,04,14,07,52,3.50
2009,04,14,07,53,3.60
2009,04,14,07,54,3.80
2009,04,14,07,55,3.90
2009,04,14,07,56,4.00
2009,04,14,07,57,4.10
2009,04,14,07,58,4.30
2009,04,14,07,59,4.40
2009,04,14,08,00,4.50
2009,04,14,08,01,4.60
2009,04,14,08,02,4.70
2009,04,14,08,03,4.80
2009,04,14,08,04,4.80
2009,04,14,08,05,4.90
2009,04,14,08,06,4.90
2009,04,14,08,07,5.00
2009,04,14,08,08,5.10
2009,04,14,08,09,5.10
2009,04,14,08,10,5.10
2009,04,14,08,11,5.20
2009,04,14,08,12,5.30
2009,04,14,08,13,5.30
2009,04,14,08,14,5.30
2009,04,14,08,15,5.30
2009,04,14,08,16,5.30
2009,04,14,08,17,5.30
2009,04,14,08,18,5.30
2009,04,14,08,19,5.30
2009,04,14,08,20,5.30
2009,04,14,08,21,5.30
2009,04,14,08,22,5.30
2009,04,14,08,23,5.30
2009,04,14,08,24,5.30
2009,04,14,08,25,5.30
2009,04,14,08,26,5.30
2009,04,14,08,27,5.30
2009,04,14,08,28,5.30
2009,04,14,08,29,5.40
2009,04,14,08,30,5.40
2009,04,14,08,31,5.40
2009,04,14,08,32,5.50
2009,04,14,08,33,5.50
2009,04,14,08,34,5.60
2009,04,14,08,35,5.70
2009,04,14,08,36,5.70
2009,04,14,08,37,5.70
2009,04,14,08,38,5.70
2009,04,14,08,39,5.70
2009,04,14,08,40,5.70
2009,04,14,08,41,5.80
2009,04,14,08,42,5.90
2009,04,14,08,43,5.90
2009,04,14,08,44,5.90
2009,04,14,08,45,6.00
2009,04,14,08,46,6.00
2009,04,14,08,47,6.00
2009,04,14,08,48,6.00
2009,04,14,08,49,6.00
2009,04,14,08,50,6.00
2009,04,14,08,51,6.00
2009,04,14,08,52,6.00
2009,04,14,08,53,6.00
2009,04,14,08,54,6.10
2009,04,14,08,55,6.10
2009,04,14,08,56,6.10
2009,04,14,08,57,6.10
2009,04,14,08,58,6.10
2009,04,14,08,59,6.10
2009,04,14,09,00,6.20
2009,04,14,09,01,6.10
2009,04,14,09,02,6.20
2009,04,14,09,03,6.20
2009,04,14,09,04,6.20
2009,04,14,09,05,6.20
2009,04,14,09,06,6.20
2009,04,14,09,07,6.30
2009,04,14,09,08,6.40
2009,04,14,09,09,6.40
2009,04,14,09,10,6.40
2009,04,14,09,11,6.40
2009,04,14,09,12,6.40
2009,04,14,09,13,6.50
2009,04,14,09,14,6.60
2009,04,14,09,15,6.50
2009,04,14,09,16,6.40
2009,04,14,09,17,6.40
2009,04,14,09,18,6.40
2009,04,14,09,19,6.40
2009,04,14,09,20,6.50
2009,04,14,09,21,6.60
2009,04,14,09,22,6.60
2009,04,14,09,23,6.60
2009,04,14,09,24,6.40
2009,04,14,09,25,6.40
2009,04,14,09,26,6.40
2009,04,14,09,27,6.40
2009,04,14,09,28,6.50
2009,04,14,09,29,6.50
2009,04,14,09,30,6.40
2009,04,14,09,31,6.40
2009,04,14,09,32,6.40
2009,04,14,09,33,6.50
2009,04,14,09,34,6.60
2009,04,14,09,35,6.60
2009,04,14,09,36,6.70
2009,04,14,09,37,6.70
2009,04,14,09,38,6.70
2009,04,14,09,39,6.80
2009,04,14,09,40,6.70
2009,04,14,09,41,6.70
2009,04,14,09,42,6.70
2009,04,14,09,43,6.70
2009,04,14,09,44,6.80
2009,04,14,09,45,6.80
2009,04,14,09,46,6.80
2009,04,14,09,47,6.80
2009,04,14,09,48,6.80
2009,04,14,09,49,6.90
2009,04,14,09,50,7.00
2009,04,14,09,51,7.00
2009,04,14,09,52,7.00
2009,04,14,09,53,7.10
2009,04,14,09,54,7.20
2009,04,14,09,55,7.30
2009,04,14,09,56,7.30
2009,04,14,09,57,7.30
2009,04,14,09,58,7.30
2009,04,14,09,59,7.30
2009,04,14,10,00,7.30
2009,04,14,10,01,7.30
2009,04,14,10,02,7.20
2009,04,14,10,03,7.20
2009,04,14,10,04,7.20
2009,04,14,10,05,7.20
2009,04,14,10,06,7.30
2009,04,14,10,07,7.30
2009,04,14,10,08,7.30
2009,04,14,10,09,7.20
2009,04,14,10,10,7.10
2009,04,14,10,11,7.10
2009,04,14,10,12,7.20
2009,04,14,10,13,7.30
2009,04,14,10,14,7.30
2009,04,14,10,15,7.40
2009,04,14,10,16,7.40
2009,04,14,10,17,7.40
2009,04,14,10,18,7.50
2009,04,14,10,19,7.60
2009,04,14,10,20,7.70
2009,04,14,10,21,7.70
2009,04,14,10,22,7.70
2009,04,14,10,23,7.70
2009,04,14,10,24,7.70
2009,04,14,10,25,7.70
2009,04,14,10,26,7.70
2009,04,14,10,27,7.70
2009,04,14,10,28,7.80
2009,04,14,10,29,7.80
2009,04,14,10,30,7.80
2009,04,14,10,31,7.80
2009,04,14,10,32,7.80
2009,04,14,10,33,7.70
2009,04,14,10,34,7.80
2009,04,14,10,35,7.80
2009,04,14,10,36,7.80
2009,04,14,10,37,7.80
2009,04,14,10,38,7.80
2009,04,14,10,39,7.70
2009,04,14,10,40,7.60
2009,04,14,10,41,7.60
2009,04,14,10,42,7.50
2009,04,14,10,43,7.50
2009,04,14,10,44,7.50
2009,04,14,10,45,7.50
2009,04,14,10,46,7.60
2009,04,14,10,47,7.60
2009,04,14,10,48,7.70
2009,04,14,10,49,7.70
2009,04,14,10,50,7.70
2009,04,14,10,51,7.80
2009,04,14,10,52,7.90
2009,04,14,10,53,7.90
2009,04,14,10,54,7.90
2009,04,14,10,55,7.90
2009,04,14,10,56,7.90
2009,04,14,10,57,8.00
2009,04,14,10,58,8.10
2009,04,14,10,59,8.10
2009,04,14,11,00,8.10
2009,04,14,11,01,8.20
2009,04,14,11,02,8.10
2009,04,14,11,03,8.10
2009,04,14,11,04,8.10
2009,04,14,11,05,8.10
2009,04,14,11,06,8.10
2009,04,14,11,07,8.00
2009,04,14,11,08,7.90
2009,04,14,11,09,7.80
2009,04,14,11,10,7.80
2009,04,14,11,11,7.90
2009,04,14,11,12,7.90
2009,04,14,11,13,7.80
2009,04,14,11,14,7.90
2009,04,14,11,15,7.90
2009,04,14,11,16,7.90
2009,04,14,11,17,7.90
2009,04,14,11,18,7.90
2009,04,14,11,19,7.80
2009,04,14,11,20,7.80
2009,04,14,11,21,7.80
2009,04,14,11,22,7.80
2009,04,14,11,23,7.90
2009,04,14,11,24,8.00
2009,04,14,11,25,8.10
2009,04,14,11,26,8.20
2009,04,14,11,27,8.20
2009,04,14,11,28,8.20
2009,04,14,11,29,8.20
2009,04,14,11,30,8.20
2009,04,14,11,31,8.20
2009,04,14,11,32,8.20
2009,04,14,11,33,8.20
2009,04,14,11,34,8.20
2009,04,14,11,35,8.40
2009,04,14,11,36,8.40
2009,04,14,11,37,8.40
2009,04,14,11,38,8.40
2009,04,14,11,39,8.30
2009,04,14,11,40,8.30
2009,04,14,11,41,8.30
2009,04,14,11,42,8.30
2009,04,14,11,43,8.30
2009,04,14,11,44,8.30
2009,04,14,11,45,8.30
2009,04,14,11,46,8.30
2009,04,14,11,47,8.30
2009,04,14,11,48,8.20
2009,04,14,11,49,8.20
2009,04,14,11,50,8.30
2009,04,14,11,51,8.30
2009,04,14,11,52,8.30
2009,04,14,11,53,8.30
2009,04,14,11,54,8.30
2009,04,14,11,55,8.30
2009,04,14,11,56,8.20
2009,04,14,11,57,8.30
2009,04,14,11,58,8.20
2009,04,14,11,59,8.20
2009,04,14,12,00,8.20
2009,04,14,12,01,8.20
2009,04,14,12,02,8.20
2009,04,14,12,03,8.20
2009,04,14,12,04,8.30
2009,04,14,12,05,8.30
2009,04,14,12,06,8.30
2009,04,14,12,07,8.40
2009,04,14,12,08,8.50
2009,04,14,12,09,8.50
2009,04,14,12,10,8.50
2009,04,14,12,11,8.50
2009,04,14,12,12,8.40
2009,04,14,12,13,8.30
2009,04,14,12,14,8.40
2009,04,14,12,15,8.50
2009,04,14,12,16,8.60
2009,04,14,12,17,8.80
2009,04,14,12,18,8.80
2009,04,14,12,19,8.70
2009,04,14,12,20,8.60
2009,04,14,12,21,8.60
2009,04,14,12,22,8.60
2009,04,14,12,23,8.60
2009,04,14,12,24,8.60
2009,04,14,12,25,8.60
2009,04,14,12,26,8.60
2009,04,14,12,27,8.70
2009,04,14,12,28,8.70
2009,04,14,12,29,8.70
2009,04,14,12,30,8.70
2009,04,14,12,31,8.80
2009,04,14,12,32,8.90
2009,04,14,12,33,9.00
2009,04,14,12,34,9.00
2009,04,14,12,35,9.20
2009,04,14,12,36,9.30
2009,04,14,12,37,9.30
2009,04,14,12,38,9.40
2009,04,14,12,39,9.40
2009,04,14,12,40,9.50
2009,04,14,12,41,9.60
2009,04,14,12,42,9.70
2009,04,14,12,43,9.70
2009,04,14,12,44,9.70
2009,04,14,12,45,9.80
2009,04,14,12,46,9.90
2009,04,14,12,47,9.90
2009,04,14,12,48,9.90
2009,04,14,12,49,9.90
2009,04,14,12,50,9.90
2009,04,14,12,51,9.90
2009,04,14,12,52,9.80
2009,04,14,12,53,9.70
2009,04,14,12,54,9.70
2009,04,14,12,55,9.70
2009,04,14,12,56,9.50
2009,04,14,12,57,9.50
2009,04,14,12,58,9.40
2009,04,14,12,59,9.40
2009,04,14,13,00,9.40
2009,04,14,13,01,9.40
2009,04,14,13,02,9.40
2009,04,14,13,03,9.40
2009,04,14,13,04,9.30
2009,04,14,13,05,9.30
2009,04,14,13,06,9.10
2009,04,14,13,07,8.80
2009,04,14,13,08,8.60
2009,04,14,13,09,8.60
2009,04,14,13,10,8.60
2009,04,14,13,11,8.40
2009,04,14,13,12,8.30
2009,04,14,13,13,8.20
2009,04,14,13,14,8.20
2009,04,14,13,15,8.10
2009,04,14,13,16,8.10
2009,04,14,13,17,8.10
2009,04,14,13,18,8.10
2009,04,14,13,19,8.10
2009,04,14,13,20,8.20
2009,04,14,13,21,8.20
2009,04,14,13,22,8.20
2009,04,14,13,23,8.20
2009,04,14,13,24,8.20
2009,04,14,13,25,8.30
2009,04,14,13,26,8.40
2009,04,14,13,27,8.60
2009,04,14,13,28,8.70
2009,04,14,13,29,8.70
2009,04,14,13,30,8.70
2009,04,14,13,31,8.70
2009,04,14,13,32,8.80
2009,04,14,13,33,8.80
2009,04,14,13,34,8.70
2009,04,14,13,35,8.70
2009,04,14,13,36,8.60
2009,04,14,13,37,8.60
2009,04,14,13,38,8.60
2009,04,14,13,39,8.60
2009,04,14,13,40,8.70
2009,04,14,13,41,8.80
2009,04,14,13,42,8.80
2009,04,14,13,43,8.80
2009,04,14,13,44,8.70
2009,04,14,13,45,8.80
2009,04,14,13,46,8.90
2009,04,14,13,47,9.10
2009,04,14,13,48,9.20
2009,04,14,13,49,9.30
2009,04,14,13,50,9.40
2009,04,14,13,51,9.60
2009,04,14,13,52,9.50
2009,04,14,13,53,9.50
2009,04,14,13,54,9.40
2009,04,14,13,55,9.30
2009,04,14,13,56,9.20
2009,04,14,13,57,9.20
2009,04,14,13,58,9.30
2009,04,14,13,59,9.40
2009,04,14,14,00,9.50
2009,04,14,14,01,9.70
2009,04,14,14,02,9.90
2009,04,14,14,03,10.00
2009,04,14,14,04,10.10
2009,04,14,14,05,10.00
2009,04,14,14,06,10.00
2009,04,14,14,07,10.10
2009,04,14,14,08,10.30
2009,04,14,14,09,10.40
2009,04,14,14,10,10.60
2009,04,14,14,11,10.80
2009,04,14,14,12,10.90
2009,04,14,14,13,10.70
2009,04,14,14,14,10.50
2009,04,14,14,15,10.10
2009,04,14,14,16,9.80
2009,04,14,14,17,9.50
2009,04,14,14,18,9.40
2009,04,14,14,19,9.30
2009,04,14,14,20,9.30
2009,04,14,14,21,9.20
2009,04,14,14,22,9.00
2009,04,14,14,23,9.00
2009,04,14,14,24,8.90
2009,04,14,14,25,8.90
2009,04,14,14,26,8.90
2009,04,14,14,27,8.80
2009,04,14,14,28,8.80
2009,04,14,14,29,8.80
2009,04,14,14,30,8.90
2009,04,14,14,31,9.00
2009,04,14,14,32,9.00
2009,04,14,14,33,8.90
2009,04,14,14,34,8.90
2009,04,14,14,35,9.00
2009,04,14,14,36,9.10
2009,04,14,14,37,9.20
2009,04,14,14,38,9.20
2009,04,14,14,39,9.20
2009,04,14,14,40,9.10
2009,04,14,14,41,9.00
2009,04,14,14,42,8.90
2009,04,14,14,43,8.70
2009,04,14,14,44,8.70
2009,04,14,14,45,8.60
2009,04,14,14,46,8.60
2009,04,14,14,47,8.70
2009,04,14,14,48,8.70
2009,04,14,14,49,8.70
2009,04,14,14,50,8.90
2009,04,14,14,51,9.00
2009,04,14,14,52,9.10
2009,04,14,14,53,9.10
2009,04,14,14,54,9.10
2009,04,14,14,55,9.10
2009,04,14,14,56,9.10
2009,04,14,14,57,9.20
2009,04,14,14,58,9.30
2009,04,14,14,59,9.40
2009,04,14,15,00,9.40
2009,04,14,15,01,9.40
2009,04,14,15,02,9.40
2009,04,14,15,03,9.30
2009,04,14,15,04,9.30
2009,04,14,15,05,9.40
2009,04,14,15,06,9.40
2009,04,14,15,07,9.30
2009,04,14,15,08,9.40
2009,04,14,15,09,9.60
2009,04,14,15,10,9.40
2009,04,14,15,11,9.30
2009,04,14,15,12,9.40
2009,04,14,15,13,9.40
2009,04,14,15,14,9.50
2009,04,14,15,15,9.70
2009,04,14,15,16,9.80
2009,04,14,15,17,10.00
2009,04,14,15,18,10.30
2009,04,14,15,19,10.60
2009,04,14,15,20,10.80
2009,04,14,15,21,11.00
2009,04,14,15,22,11.10
2009,04,14,15,23,11.20
2009,04,14,15,24,11.40
2009,04,14,15,25,11.50
2009,04,14,15,26,11.70
2009,04,14,15,27,11.80
2009,04,14,15,28,11.90
2009,04,14,15,29,12.00
2009,04,14,15,30,12.10
2009,04,14,15,31,12.10
2009,04,14,15,32,12.10
2009,04,14,15,33,12.30
2009,04,14,15,34,12.30
2009,04,14,15,35,12.40
2009,04,14,15,36,12.40
2009,04,14,15,37,12.30
2009,04,14,15,38,12.30
2009,04,14,15,39,12.30
2009,04,14,15,40,12.30
2009,04,14,15,41,12.30
2009,04,14,15,42,12.30
2009,04,14,15,43,12.30
2009,04,14,15,44,12.30
2009,04,14,15,45,12.30
2009,04,14,15,46,12.30
2009,04,14,15,47,12.30
2009,04,14,15,48,12.40
2009,04,14,15,49,12.50
2009,04,14,15,50,12.50
2009,04,14,15,51,12.50
2009,04,14,15,52,12.50
2009,04,14,15,53,12.60
2009,04,14,15,54,12.50
2009,04,14,15,55,12.50
2009,04,14,15,56,12.50
2009,04,14,15,57,12.50
2009,04,14,15,58,12.50
2009,04,14,15,59,12.60
2009,04,14,16,00,12.50
2009,04,14,16,01,12.60
2009,04,14,16,02,12.60
2009,04,14,16,03,12.50
2009,04,14,16,04,12.50
2009,04,14,16,05,12.50
2009,04,14,16,06,12.50
2009,04,14,16,07,12.60
2009,04,14,16,08,12.60
2009,04,14,16,09,12.60
2009,04,14,16,10,12.60
2009,04,14,16,11,12.60
2009,04,14,16,12,12.60
2009,04,14,16,13,12.70
2009,04,14,16,14,12.70
2009,04,14,16,15,12.70
2009,04,14,16,16,12.60
2009,04,14,16,17,12.60
2009,04,14,16,18,12.60
2009,04,14,16,19,12.60
2009,04,14,16,20,12.70
2009,04,14,16,21,12.80
2009,04,14,16,22,12.90
2009,04,14,16,23,12.90
2009,04,14,16,24,12.90
2009,04,14,16,25,13.00
2009,04,14,16,26,13.10
2009,04,14,16,27,13.10
2009,04,14,16,28,13.00
2009,04,14,16,29,12.90
2009,04,14,16,30,12.90
2009,04,14,16,31,12.90
2009,04,14,16,32,12.90
2009,04,14,16,33,12.80
2009,04,14,16,34,12.70
2009,04,14,16,35,12.70
2009,04,14,16,36,12.80
2009,04,14,16,37,12.90
2009,04,14,16,38,13.00
2009,04,14,16,39,13.00
2009,04,14,16,40,13.00
2009,04,14,16,41,13.00
2009,04,14,16,42,13.00
2009,04,14,16,43,13.00
2009,04,14,16,44,12.90
2009,04,14,16,45,13.00
2009,04,14,16,46,12.90
2009,04,14,16,47,12.90
2009,04,14,16,48,12.90
2009,04,14,16,49,12.90
2009,04,14,16,50,12.80
2009,04,14,16,51,12.90
2009,04,14,16,52,12.90
2009,04,14,16,53,13.00
2009,04,14,16,54,13.00
2009,04,14,16,55,13.00
2009,04,14,16,56,12.90
2009,04,14,16,57,12.90
2009,04,14,16,58,12.80
2009,04,14,16,59,12.80
2009,04,14,17,00,12.80
2009,04,14,17,01,12.80
2009,04,14,17,02,12.90
2009,04,14,17,03,12.90
2009,04,14,17,04,12.90
2009,04,14,17,05,12.90
2009,04,14,17,06,13.00
2009,04,14,17,07,13.00
2009,04,14,17,08,13.00
2009,04,14,17,09,13.00
2009,04,14,17,10,13.00
2009,04,14,17,11,12.90
2009,04,14,17,12,12.80
2009,04,14,17,13,12.60
2009,04,14,17,14,12.60
2009,04,14,17,15,12.60
2009,04,14,17,16,12.60
2009,04,14,17,17,12.70
2009,04,14,17,18,12.80
2009,04,14,17,19,12.80
2009,04,14,17,20,12.80
2009,04,14,17,21,12.80
2009,04,14,17,22,12.80
2009,04,14,17,23,12.80
2009,04,14,17,24,12.80
2009,04,14,17,25,12.90
2009,04,14,17,26,13.00
2009,04,14,17,27,13.00
2009,04,14,17,28,13.10
2009,04,14,17,29,13.20
2009,04,14,17,30,13.20
2009,04,14,17,31,13.30
2009,04,14,17,32,13.30
2009,04,14,17,33,13.30
2009,04,14,17,34,13.30
2009,04,14,17,35,13.30
2009,04,14,17,36,13.30
2009,04,14,17,37,13.20
2009,04,14,17,38,13.10
2009,04,14,17,39,13.00
2009,04,14,17,40,13.00
2009,04,14,17,41,13.10
2009,04,14,17,42,13.20
2009,04,14,17,43,13.20
2009,04,14,17,44,13.30
2009,04,14,17,45,13.40
2009,04,14,17,46,13.40
2009,04,14,17,47,13.40
2009,04,14,17,48,13.30
2009,04,14,17,49,13.30
2009,04,14,17,50,13.30
2009,04,14,17,51,13.30
2009,04,14,17,52,13.20
2009,04,14,17,53,13.20
2009,04,14,17,54,13.20
2009,04,14,17,55,13.10
2009,04,14,17,56,13.10
2009,04,14,17,57,13.00
2009,04,14,17,58,13.10